Weather History for Shreveport Downtown, LA

Change the Weather History Date:

Sunday, January 5, 2014

  Actual Average (KSHV) Record (KSHV)
Temperature  
Mean Temperature 41 °F 46 °F  
Max Temperature 57 °F 57 °F 77 °F (1927)
Min Temperature 23 °F 36 °F 15 °F (1887)
Degree Days  
Heating Degree Days 24 19  
Month to date heating degree days 95  
Since 1 July heating degree days 997  
Cooling Degree Days 0 0  
Month to date cooling degree days 0  
Year to date cooling degree days 0  
Moisture  
Dew Point 36 °F    
Average Humidity 76    
Maximum Humidity 94    
Minimum Humidity 52    
Precipitation  
Precipitation 0.02 in 0.14 in 2.17 in (1872)
Month to date precipitation 0.65  
Year to date precipitation 0.65  
Snow  
Snow 0.00 in - - ()
Month to date snowfall  
Since 1 July snowfall  
Snow Depth -    
Sea Level Pressure  
Sea Level Pressure 30.01 in    
Wind  
Wind Speed 12 mph (WNW)    
Max Wind Speed 22 mph    
Max Gust Speed 30 mph    
Visibility 9 miles    
Events Rain    
T = Trace of Precipitation, MM = Missing Value Source: NWS Daily Summary

Daily Weather History Graph

Daily Weather History Graph

Search for Another Location

Airport:

Trip Planner

Search our weather history database for the weather conditions in past years. The results will help you decide how hot, cold, wet, or windy it might be!

Date:

Astronomy

Jan. 05, 2014 Rise Set
Actual Time 7:17 AM CST 5:23 PM CST
Civil Twilight 6:50 AM CST 5:50 PM CST
Nautical Twilight 6:19 AM CST 6:21 PM CST
Astronomical Twilight 5:50 AM CST 6:50 PM CST
Moon 10:16 AM CST (1/5) 10:32 PM CST (1/5)
Length of Visible Light 11h 00m
Length of Day
10h 06m
Waxing Crescent, 25% of the Moon is Illuminated
Jan 5
Waxing Crescent
Jan 7
First Quarter
Jan 15
Full
Jan 23
Last Quarter
Jan 30
New

Hourly Weather History & Observations

Time (CST) Temp. Windchill Dew Point Humidity Pressure Visibility Wind Dir Wind Speed Gust Speed Precip Events Conditions
12:02 AM 55.4 °F - 48.2 °F 77% 29.87 in 10.0 mi SSE 9.2 mph - N/A   Overcast
12:53 AM 57.0 °F - 48.9 °F 74% 29.86 in 10.0 mi SSE 10.4 mph - N/A   Overcast
1:27 AM 57.2 °F - 48.2 °F 72% 29.85 in 10.0 mi SSE 11.5 mph - N/A   Overcast
1:53 AM 55.9 °F - 48.9 °F 77% 29.83 in 10.0 mi SSE 9.2 mph - N/A   Overcast
2:53 AM 55.9 °F - 50.0 °F 80% 29.81 in 10.0 mi SSE 8.1 mph - N/A   Overcast
3:53 AM 55.9 °F - 50.0 °F 80% 29.81 in 10.0 mi SE 5.8 mph - N/A   Overcast
4:09 AM 55.4 °F - 50.0 °F 82% 29.81 in 10.0 mi SSE 3.5 mph - N/A   Overcast
4:53 AM 55.9 °F - 51.1 °F 84% 29.82 in 10.0 mi South 5.8 mph - 0.00 in Rain Light Rain
5:53 AM 54.0 °F - 52.0 °F 93% 29.81 in 10.0 mi SE 5.8 mph - 0.00 in   Overcast
6:01 AM 53.6 °F - 51.8 °F 94% 29.80 in 10.0 mi SSE 8.1 mph - N/A   Overcast
6:53 AM 55.9 °F - 53.1 °F 90% 29.80 in 10.0 mi South 11.5 mph - N/A   Overcast
7:53 AM 57.0 °F - 54.0 °F 89% 29.81 in 10.0 mi South 11.5 mph - 0.00 in   Overcast
8:15 AM 53.6 °F - 51.8 °F 94% 29.86 in 9.0 mi West 16.1 mph 28.8 mph 0.00 in Rain Light Rain
8:24 AM 48.2 °F - 46.4 °F 93% 29.88 in 7.0 mi WNW 20.7 mph 29.9 mph 0.01 in Rain Light Rain
8:33 AM 46.4 °F 39.2 °F 42.8 °F 87% 29.89 in 7.0 mi WNW 18.4 mph 26.5 mph 0.01 in Rain Light Rain
8:53 AM 45.0 °F 37.9 °F 42.1 °F 90% 29.91 in 4.0 mi WNW 16.1 mph 24.2 mph 0.01 in Rain Light Rain
9:19 AM 42.8 °F 36.6 °F 41.0 °F 93% 29.93 in 5.0 mi WNW 11.5 mph - 0.01 in   Overcast
9:53 AM 39.9 °F 30.0 °F 36.0 °F 86% 29.97 in 7.0 mi WNW 21.9 mph 26.5 mph 0.01 in   Overcast
10:00 AM 39.2 °F 29.8 °F 35.6 °F 87% 29.98 in 7.0 mi WNW 18.4 mph 27.6 mph 0.00 in Rain Light Rain
10:53 AM 37.0 °F 26.4 °F 32.0 °F 82% 30.01 in 10.0 mi WNW 20.7 mph 29.9 mph 0.00 in   Overcast
11:53 AM 35.1 °F 24.1 °F 28.9 °F 78% 30.02 in 10.0 mi NW 19.6 mph 26.5 mph N/A   Overcast
12:33 PM 37.4 °F 27.8 °F 30.2 °F 75% 30.01 in 10.0 mi WNW 17.3 mph 25.3 mph N/A   Scattered Clouds
12:53 PM 37.9 °F 29.2 °F 28.0 °F 68% 30.02 in 10.0 mi WNW 15.0 mph 27.6 mph N/A   Mostly Cloudy
1:12 PM 39.2 °F 29.6 °F 26.6 °F 61% 30.02 in 10.0 mi NW 19.6 mph 28.8 mph N/A   Scattered Clouds
1:53 PM 37.9 °F 30.0 °F 25.0 °F 60% 30.04 in 10.0 mi NW 12.7 mph 28.8 mph N/A   Partly Cloudy
2:53 PM 39.0 °F 29.6 °F 23.0 °F 53% 30.07 in 10.0 mi WNW 18.4 mph 24.2 mph N/A   Partly Cloudy
3:53 PM 37.0 °F 27.4 °F 21.0 °F 52% 30.12 in 10.0 mi NW 17.3 mph 24.2 mph N/A   Clear
4:53 PM 34.0 °F 25.5 °F 19.9 °F 56% 30.17 in 10.0 mi NNW 11.5 mph 23.0 mph N/A   Scattered Clouds
5:53 PM 32.0 °F 22.1 °F 18.0 °F 56% 30.21 in 10.0 mi NW 13.8 mph 20.7 mph N/A   Clear
6:53 PM 28.9 °F 18.6 °F 17.1 °F 61% 30.27 in 10.0 mi NNW 12.7 mph 24.2 mph N/A   Clear
7:53 PM 28.0 °F 16.1 °F 16.0 °F 61% 30.32 in 10.0 mi NNW 16.1 mph 29.9 mph N/A   Overcast
8:53 PM 27.0 °F 16.7 °F 16.0 °F 63% 30.36 in 10.0 mi NNW 11.5 mph 20.7 mph N/A   Clear
9:53 PM 26.1 °F 16.2 °F 15.1 °F 63% 30.40 in 10.0 mi NNW 10.4 mph 26.5 mph N/A   Clear
10:53 PM 25.0 °F 14.2 °F 15.1 °F 66% 30.43 in 10.0 mi NNW 11.5 mph 19.6 mph N/A   Clear
11:53 PM 23.0 °F 11.1 °F 14.0 °F 68% 30.46 in 10.0 mi NNW 12.7 mph 24.2 mph N/A   Clear